sat.trackr.live / text

‹ back to catalog

STARLINK-30959

NORAD 58442 · 2023-183F

PAYLOAD ACTIVE UNKNOWN

§ Identity

Operator
Country
US
Launch date
2023-11-28
Launch site
AFETR
Launch vehicle
Mass (kg)
RCS (m²)

Purposes: comms

External: N2YO · Heavens-Above · Gunter

§ Orbital elements

Epoch: 2026-05-24T23:15:47.265984Z

Period
94.27 min
Inclination
43.0045°
Eccentricity
0.0002017
Mean motion
15.27586431 rev/d
Perigee alt
481.6 km
Apogee alt
484.4 km
Semi-major
6,861.2 km
B*
5.9799e-5
RAAN
330.5493°
Arg perigee
249.9537°
Mean anomaly
110.1098°
Rev number
13,840

§ Raw data

STARLINK-309591 58442U 23183F   26144.96929706  .00001384  00000+0  59799-4 0  99932 58442  43.0045 330.5493 0002017 249.9537 110.1098 15.27586431138405

JSON: /api/v1/satellites/58442 · /tle

For live sub-satellite position, see the globe view (requires WebGL).

§ Visibility from observer

Set your observer location to see the next 7 days of passes ≥ 10°. The values pass through the URL so the page stays shareable.

No JS? Fill the form by hand. The geolocation button needs JavaScript.